Flag for France Weather past 2 weeks in Ajaccio, Corsica, France

Now
52 °F

Passing clouds.


Feels Like: 51 °F
Forecast: 55 / 64 °F
Wind: 3 mph from East

Location: Ajaccio Airport

Current Time: Mar 29, 2015 at 11:30:30 PM

Latest Report: Mar 29, 2015 at 11:00 PM


Visibility: N/A

Pressure: 29.95 "Hg

Humidity: 88%

Dew point: 48 °F

Location of AjaccioLocation

Historic Weather in Ajaccio — Graph

°F

Ajaccio temperature yesterday

Maximum temperature yesterday: 66 °F (at 3:00 PM)
Minimum temperature yesterday: 39 °F (at 6:00 AM)
Average temperature yesterday: 54 °F

Past Weeks' High & Low Weather Summary

 TemperatureHumidityPressure
High66 °F (Mar 24, 2:00 PM)100% (Mar 16, 8:30 PM)30.18 "Hg (Mar 16, 8:30 PM)
Low39 °F (Mar 28, 6:00 AM)46% (Mar 28, 3:30 PM)29.24 "Hg (Mar 25, 12:30 PM)
Average54 °F80%29.90 "Hg
* Reported Mar 14 9:00 PM — Mar 29 10:00 PM, Ajaccio, Weather by CustomWeather, © 2015

Note: Actual official high and low records may vary slightly from our data, if they occured in-between our weather recording intervals... More about our weather records

Advertising

Ajaccio weather history for previous 24 hours

 ConditionsComfort  
Time TempWeatherWind HumidityBarometerVisibility
10:00 PM
Sun, Mar 29
54 °FPassing clouds.3 mph88%29.95 "HgN/A
9:30 PM54 °FCool.5 mph82%29.95 "HgN/A
9:00 PM54 °FCool.2 mph94%29.95 "HgN/A
8:30 PM55 °FSunny.1 mph88%29.95 "Hg10 mi
8:00 PM55 °FClear.3 mph94%29.95 "Hg6 mi
7:30 PM57 °FSunny.6 mph88%29.95 "Hg10 mi
6:00 PM61 °FPartly sunny.10 mph77%29.92 "HgN/A
5:30 PM61 °FPartly sunny.10 mph77%29.92 "HgN/A
5:00 PM61 °FPartly sunny.8 mph77%29.92 "HgN/A
4:30 PM61 °FPartly sunny.7 mph77%29.92 "HgN/A
4:00 PM61 °FPartly sunny.8 mph77%29.92 "HgN/A
3:30 PM63 °FPartly sunny.10 mph73%29.92 "HgN/A
3:00 PM63 °FScattered clouds.12 mph73%29.95 "HgN/A
2:30 PM63 °FScattered clouds.14 mph73%29.95 "HgN/A
2:09 PM63 °FScattered clouds.12 mph73%29.95 "HgN/A
1:30 PM63 °FScattered clouds.8 mph73%29.95 "HgN/A
1:00 PM63 °FScattered clouds.7 mph73%29.95 "HgN/A
12:30 PM63 °FScattered clouds.9 mph73%29.95 "HgN/A
12:00 PM61 °FScattered clouds.7 mph68%29.95 "HgN/A
11:30 AM61 °FSunny.7 mph68%29.95 "Hg10 mi
11:00 AM59 °FSunny.7 mph63%29.95 "Hg10 mi
10:30 AM59 °FSunny.2 mph59%29.95 "Hg10 mi
10:00 AM57 °FPassing clouds.6 mph59%29.95 "HgN/A
9:30 AM54 °FPassing clouds.5 mph63%29.95 "HgN/A
9:00 AM50 °FPassing clouds.6 mph71%29.95 "HgN/A
8:30 AM45 °FSunny.5 mph81%29.95 "Hg10 mi
8:00 AM43 °FClear.7 mph87%29.95 "Hg10 mi
7:30 AM41 °FClear.7 mph93%29.95 "Hg10 mi
7:00 AM43 °FClear.6 mph87%29.95 "Hg10 mi
6:30 AM41 °FClear.7 mph93%29.95 "Hg10 mi
6:00 AM43 °FClear.8 mph87%29.95 "Hg10 mi
5:30 AM43 °FClear.6 mph87%29.95 "Hg10 mi
5:00 AM45 °FClear.3 mph93%29.95 "Hg10 mi
4:30 AM43 °FClear.2 mph93%29.95 "Hg10 mi
4:00 AM45 °FClear.No wind93%29.95 "Hg10 mi
3:30 AM45 °FClear.No wind87%29.98 "Hg10 mi
3:00 AM46 °FClear.7 mph87%29.98 "Hg10 mi
1:30 AM46 °FPassing clouds.3 mph87%30.01 "HgN/A
1:00 AM48 °FClear.6 mph87%30.01 "Hg10 mi
12:30 AM46 °FClear.6 mph93%30.01 "Hg10 mi
12:00 AM48 °FClear.3 mph87%30.01 "Hg10 mi
11:30 PM
Sat, Mar 28
48 °FClear.3 mph87%30.01 "Hg10 mi
11:00 PM50 °FClear.2 mph82%30.01 "Hg10 mi
Weather by CustomWeather, © 2015

See weather overviewHow to use our weather pages